Location: Ch’iriki
(42.4164°N, 44.6569°E)
Time: 22:46:45
(UTC+00:00)

Daily predictions for brighter satellites

Satellite Brightness Start Highest point End
(mag) Time Altitude Azimuth Time Altitude Azimuth Time Altitude Azimuth
BREEZE-M DEB (TANK) 4.1 14:47:42 10° WNW 14:51:35 49° NNE 15:06:02 10° E
Thor Agena Rocket 4.1 14:49:22 10° S 14:54:23 66° WSW 14:59:31 10° NNW
USA 306 2.5 14:54:26 10° NW 14:56:57 27° NNE 14:58:42 10° E
CZ-2D R/B 4.1 14:53:57 10° SE 14:57:21 30° ENE 15:00:50 10° N
Sich 1 Rocket 4.2 14:55:20 10° N 14:59:31 35° ENE 15:03:41 10° SE
GP-B 3.1 14:58:27 10° S 15:02:49 87° W 15:07:12 10° N
Cosmos 1025 Rocket 3.1 15:00:10 10° S 15:04:22 57° E 15:08:37 10° NNE
BREEZE-M DEB (TANK) 4.0 15:01:59 10° NW 15:05:11 43° NNE 15:13:55 10° E
Resurs 01 Rocket 2.7 15:03:22 10° ESE 15:06:48 23° ENE 15:10:15 10° NNE
SKYMED 2 3.5 15:02:38 10° NNE 15:06:59 73° ESE 15:11:19 10° S
Resurs 1-3 3.6 15:06:01 10° SSE 15:10:12 55° ENE 15:14:25 10° N
Tiangong -0.7 15:08:57 10° SW 15:11:41 27° SSE 15:14:12 11° E
SJ-6F 4.5 15:08:21 10° S 15:12:17 79° WSW 15:16:15 10° NNW
Cosmos 1356 Rocket 3.2 15:08:28 10° N 15:12:26 78° E 15:16:24 10° SSE
Cosmos 2016 Rocket 4.3 15:09:43 10° N 15:15:59 77° W 15:22:16 10° S
SPOT 1/Viking Rocket 3.7 15:11:09 10° S 15:16:16 80° WSW 15:21:25 10° NNW
Cosmos 2263 Rocket 3.7 15:19:09 10° SE 15:21:58 14° E 15:23:06 13° E
Cosmos 1980 4.0 15:17:18 10° NNW 15:22:41 43° ENE 15:28:02 10° SE
COSMOS 2428 2.8 15:17:41 10° NNW 15:23:27 87° WSW 15:29:10 10° SSE
IRS-P3 4.5 15:18:46 10° S 15:24:03 72° WSW 15:29:24 10° NNW
Cosmos 2285 Rocket 4.1 15:20:19 10° NNW 15:26:40 57° ENE 15:32:55 10° SE
Cosmos 1674 Rocket 4.1 15:22:47 10° SSW 15:27:07 61° W 15:31:30 10° N
Cosmos 2237 Rocket 2.5 15:22:40 10° NNW 15:28:07 44° ENE 15:33:31 10° SE
Cosmos 2233 Rocket 4.2 15:24:39 10° N 15:30:56 80° W 15:37:15 10° S
USA 267 4.3 15:26:18 10° NE 15:32:12 37° NNW 15:38:04 10° W
Helios 1A Rocket 3.6 15:32:58 20° E 15:32:59 20° E 15:35:28 10° SSE
Lacrosse 5 rocket 3.5 15:33:28 10° NW 15:35:05 13° NNW 15:36:42 10° N
Aureole 3 Rocket 2.4 15:34:21 10° N 15:38:08 61° E 15:41:14 10° SSE
CARTOSAT-1 3.4 15:35:37 10° SSE 15:39:46 65° ENE 15:43:56 10° N
SJ-6B 3.3 15:38:14 18° ESE 15:40:02 28° ENE 15:43:02 10° N
Cosmos 44 Rocket 3.5 15:36:08 10° SSW 15:40:50 52° ESE 15:44:58 14° NE
NOSS 0 Rocket 4.0 15:36:14 10° NNW 15:42:30 84° WSW 15:48:43 10° SSE
SJ-7 4.2 15:43:18 10° SSE 15:46:59 83° WSW 15:50:41 10° NNW
Delta 2 Rocket 4.3 15:45:38 10° SW 15:48:08 23° S 15:49:18 19° SE
Cosmos 2227 Rocket 2.5 15:45:06 10° S 15:50:21 43° ESE 15:55:01 13° NE
SL-19 R/B 4.4 15:45:58 10° SSE 15:52:10 82° ENE 15:58:09 10° NNW
SL-16 R/B 3.4 15:48:29 10° N 15:52:50 22° NE 15:53:30 22° ENE
Cosmos 1570 Rocket 4.0 15:50:49 10° SSW 15:56:06 89° ESE 16:01:23 10° NNE
CZ-4C R/B 3.6 15:55:28 10° W 15:59:11 27° NW 16:03:44 10° NNE
Cosmos 1125 Rocket 3.9 15:55:41 10° NNW 16:00:50 66° WSW 16:05:58 10° S
ATLAS 5 CENTAUR R/B 4.4 15:58:09 10° WNW 16:01:50 22° WSW 16:06:04 10° SSW
Cosmos 1975 Rocket 2.9 16:01:52 10° S 16:06:10 63° E 16:10:27 10° NNE
SeaSat 1 4.4 16:01:59 10° S 16:06:15 30° WSW 16:10:34 10° NW
YAOGAN 1 4.2 16:03:27 10° SSW 16:07:22 36° W 16:11:18 10° NNW
Cosmos 1455 Rocket 3.0 16:03:55 10° N 16:08:14 82° W 16:12:31 10° S
USA 234 4.4 16:02:09 10° SSE 16:08:15 41° SW 16:14:25 10° WNW
Cosmos 1464 Rocket 4.0 16:03:07 10° N 16:09:25 61° E 16:15:37 10° SSE
NOAA 6 4.5 16:06:30 10° S 16:11:35 64° WSW 16:16:43 10° NNW
Cosmos 2208 Rocket 4.0 16:10:32 10° SSW 16:15:45 86° WNW 16:21:05 10° NNE
BREEZE-M DEB (TANK) 3.5 16:13:25 10° SSW 16:16:58 54° SE 16:21:10 28° ENE
Meteor 2-17 Rocket 4.4 16:11:38 10° S 16:17:41 88° W 16:23:46 10° N
Cosmos 2344 3.6 16:10:42 10° SSW 16:18:45 57° ESE 16:22:50 26° NE
Cosmos 1346 Rocket 4.3 16:15:36 10° S 16:16:57 21° S 16:16:57 21° S
Atlas Centaur 2 3.9 16:13:14 10° WSW 16:19:42 30° S 16:23:01 20° SE
COSMO-SKYMED 1 4.4 16:17:22 10° N 16:20:56 29° WNW 16:24:28 10° SW
SPOT 5 3.2 16:21:19 44° ENE 16:21:19 44° ENE 16:25:45 10° N
Cosmos 773 Rocket 4.2 16:16:50 10° SSW 16:22:04 71° WNW 16:27:22 10° NNE
Cosmos 2228 2.7 16:18:23 10° N 16:22:34 78° E 16:24:13 36° SSE
CSL-04 Debris 4.3 16:26:06 48° E 16:26:38 50° ENE 16:31:52 10° N
CSL-04 Rocket 3.6 16:29:58 54° ESE 16:30:38 58° ENE 16:35:48 10° N
IRAS Rocket 4.4 16:26:23 10° S 16:31:58 72° WSW 16:37:36 10° NNW
Cosmos 2297 Rocket 3.6 16:30:01 10° SW 16:35:13 37° WNW 16:40:28 10° N
Resurs 01 Rocket 3.2 16:38:59 10° SSW 16:42:58 34° W 16:46:59 10° NNW
Cosmos 2150 Rocket 4.0 16:40:07 10° NNW 16:45:17 77° WSW 16:46:43 47° S
Haruka 4.4 16:41:27 10° WSW 16:45:30 21° S 16:45:33 21° S
NOSS 3-4 (A) 3.9 16:39:14 10° NW 16:46:13 85° SW 16:50:19 32° SSE
NOSS 3-4 (C) 3.9 16:39:31 10° NW 16:46:31 86° SW 16:50:30 33° SSE
Cosmos 2298 Rocket 4.0 16:42:18 10° NNW 16:47:36 79° WSW 16:48:58 51° S
Tiangong 0.3 16:45:13 10° WSW 16:46:31 22° WSW 16:46:31 22° WSW
Cosmos 2263 Rocket 2.2 16:59:23 10° SSW 17:04:53 79° W 17:04:53 79° W
Cosmos 2237 Rocket 4.1 17:07:10 10° NW 17:11:53 27° WSW 17:16:35 10° SSW
Cosmos 2227 Rocket 3.9 17:29:36 10° WSW 17:34:30 30° NW 17:36:55 22° NNW
SL-16 R/B 3.3 17:31:48 10° NNW 17:35:24 39° NW 17:35:24 39° NW
